GW0458 Weather Reports


time (UTC)temp
C
wind
direction
speed
KPH
gust
KPH
rain 1hr
cm
rain 24hr
cm
rain mn
cm
humidity
%
barometer
mb
20260831013554 20 212 1.6 1.6 0.00 0.00 0.00 58 1025.2
20260831010551 20 217 1.6 3.2 0.00 0.00 0.00 60 1025.6
20260831003547 20 249 1.6 1.6 0.00 0.00 0.00 60 1025.8
20260831000542 21 211 0.0 1.6 0.00 0.00 0.00 56 1025.9
20260830233538 22 219 1.6 1.6 0.00 0.00 0.00 57 1026.1
20260830230533 22 213 0.0 0.0 0.00 0.00 0.00 58 1026.2
20260830223533 20 205 1.6 1.6 0.00 0.00 0.00 63 1026.6
20260830220532 22 215 0.0 1.6 0.00 0.00 0.00 58 1026.5
20260830213527 20 208 0.0 1.6 0.00 0.00 0.00 63 1027.4
20260830210526 21 219 1.6 1.6 0.00 0.00 0.00 59 1027.5
20260830203526 21 213 0.0 0.0 0.00 0.00 0.00 58 1027.4
20260830200524 18 190 1.6 1.6 0.00 0.00 0.00 67 1027.9
20260830193521 18 214 1.6 1.6 0.00 0.00 0.00 66 1028.0
20260830190520 18 77 3.2 4.8 0.00 0.00 0.00 67 1028.2
20260830183517 19 212 0.0 1.6 0.00 0.00 0.00 67 1028.5
20260830180517 18 180 3.2 3.2 0.00 0.00 0.00 70 1028.6
20260830173514 17 201 1.6 1.6 0.00 0.00 0.00 71 1028.4
20260830170514 17 170 1.6 3.2 0.00 0.00 0.00 74 1028.3
20260830163511 15 176 3.2 3.2 0.00 0.00 0.00 77 1028.5
20260830160510 15 200 0.0 1.6 0.00 0.00 0.00 82 1028.6
20260830153507 14 177 1.6 3.2 0.00 0.00 0.00 85 1028.4
20260830150507 13 205 0.0 0.0 0.00 0.00 0.00 90 1028.5
20260830143507 13 201 0.0 0.0 0.00 0.00 0.00 89 1028.2
20260830140504 12 183 1.6 1.6 0.00 0.00 0.00 93 1028.2
20260830133459 12 204 1.6 1.6 0.00 0.00 0.00 91 1028.0
20260830130457 12 185 1.6 3.2 0.00 0.00 0.00 93 1028.0
20260830123455 12 191 1.6 1.6 0.00 0.00 0.00 94 1028.0
20260830120450 12 200 0.0 0.0 0.00 0.00 0.00 94 1027.9
20260830113447 12 199 0.0 0.0 0.00 0.00 0.00 92 1027.9
20260830110443 12 203 3.2 3.2 0.00 0.00 0.00 91 1027.7
20260830103439 12 199 0.0 0.0 0.00 0.00 0.00 92 1028.0
20260830100434 12 199 0.0 0.0 0.00 0.00 0.00 91 1027.9
20260830093435 13 191 3.2 3.2 0.00 0.00 0.00 90 1027.7
20260830090434 12 194 1.6 1.6 0.00 0.00 0.00 91 1027.8
20260830083429 12 178 0.0 3.2 0.00 0.00 0.00 90 1027.6
20260830080427 12 190 1.6 3.2 0.00 0.00 0.00 90 1027.5
20260830073422 12 197 0.0 0.0 0.00 0.00 0.00 92 1027.5
20260830070418 13 201 0.0 0.0 0.00 0.00 0.00 90 1027.3
20260830063417 13 200 0.0 0.0 0.00 0.74 0.74 86 1027.3
20260830060416 13 208 0.0 0.0 0.00 0.74 0.74 85 1026.9
20260830053412 13 204 0.0 0.0 0.00 0.74 0.74 86 1027.1
20260830050409 14 197 0.0 0.0 0.00 0.74 0.74 83 1027.1
20260830043405 15 205 0.0 0.0 0.00 0.74 0.74 80 1026.8
20260830040404 15 192 0.0 0.0 0.00 0.74 0.74 81 1026.3
20260830033400 15 201 0.0 1.6 0.00 0.74 0.74 80 1026.0
20260830030400 16 196 0.0 1.6 0.00 0.74 0.74 77 1025.5
20260830023356 17 192 1.6 1.6 0.00 0.74 0.74 73 1025.4
20260830020352 17 202 0.0 0.0 0.00 0.74 0.74 75 1025.2